Temp
-9 -9 -10 -9 -9 -9 -9 -9 -9 -9 -10 -10 -8 -9 -9 -10 -10 -11 -10 -10 -9 -10 -10 -10 -10 -10 -9 -9 -10 -10 -10 -11 -10 -11 -10 -11 -11 -11 -11 -11 -11 -10 -10 -10
-9 -9 -10 -9 -10 -10 -9 -10 -10 -10 -10 -10 -9 -9 -9 -10 -9 -10 -10 -9 -9 -10 -10 -10 -10 -10 -10 -10 -10 -10 -10 -11 -11 -11 -11 -11 -11 -10 -10 -11 -11 -10 -10 -10
-9 -9 -10 -10 -10 -10 -10 -10 -10 -10 -10 -10 -10 -9 -9 -10 -9 -9 -9 -9 -9 -10 -10 -10 -10 -10 -10 -10 -10 -11 -11 -11 -11 -11 -11 -12 -11 -11 -11 -11 -10 -10 -11 -10
-10 -10 -10 -10 -9 -10 -10 -10 -10 -10 -10 -10 -10 -10 -10 -10 -10 -9 -9 -9 -8 -8 -9 -10 -10 -10 -10 -10 -11 -11 -11 -11 -11 -11 -11 -11 -11 -11 -11 -11 -11 -11 -11 -10
-10 -10 -10 -10 -10 -10 -10 -10 -10 -10 -10 -10 -10 -10 -10 -9 -9 -10 -10 -9 -9 -9 -9 -11 -10 -10 -11 -11 -11 -11 -11 -11 -11 -11 -11 -11 -11 -11 -11 -11 -11 -11 -11 -10
-10 -10 -10 -10 -10 -10 -10 -10 -10 -10 -10 -10 -10 -11 -10 -10 -10 -9 -10 -10 -10 -9 -10 -10 -10 -11 -11 -12 -12 -12 -11 -11 -11 -11 -11 -11 -11 -11 -11 -11 -11 -11 -11 -11
-11 -10 -11 -10 -10 -10 -10 -10 -10 -11 -10 -10 -11 -11 -11 -11 -10 -10 -10 -10 -10 -10 -10 -10 -10 -11 -12 -12 -12 -13 -12 -12 -12 -11 -11 -11 -11 -11 -11 -11 -11 -11 -11 -11
-11 -10 -11 -11 -10 -11 -11 -11 -11 -11 -10 -11 -11 -11 -11 -11 -11 -11 -11 -10 -10 -10 -10 -11 -11 -11 -11 -12 -12 -12 -12 -12 -12 -12 -11 -11 -11 -11 -11 -11 -11 -11 -11 -11
-12 -11 -11 -11 -11 -11 -11 -11 -11 -11 -11 -11 -11 -10 -11 -11 -12 -11 -11 -11 -11 -11 -11 -11 -11 -12 -12 -12 -12 -12 -12 -12 -12 -13 -12 -12 -12 -12 -12 -12 -11 -11 -11 -11
-12 -11 -11 -11 -11 -11 -11 -11 -12 -11 -11 -11 -11 -11 -11 -11 -11 -11 -12 -12 -12 -12 -12 -12 -12 -12 -13 -12 -13 -12 -13 -13 -13 -12 -12 -12 -12 -12 -12 -12 -12 -11 -12 -12
-13 -12 -12 -12 -11 -11 -11 -11 -11 -11 -11 -11 -11 -11 -11 -11 -11 -11 -12 -12 -12 -12 -12 -12 -12 -12 -12 -12 -12 -12 -12 -12 -13 -12 -12 -12 -12 -12 -12 -12 -11 -11 -12 -12
-13 -13 -12 -12 -12 -12 -12 -12 -13 -13 -11 -11 -11 -11 -12 -11 -12 -12 -12 -12 -12 -12 -12 -12 -12 -12 -11 -11 -11 -11 -11 -12 -12 -12 -12 -12 -12 -12 -12 -12 -12 -12 -12 -12
-13 -13 -13 -13 -12 -12 -12 -12 -12 -12 -12 -12 -12 -11 -12 -12 -12 -12 -12 -12 -12 -12 -11 -12 -12 -12 -11 -11 -11 -11 -12 -11 -12 -12 -12 -12 -13 -13 -13 -12 -12 -12 -12 -12
-15 -14 -14 -14 -13 -13 -13 -12 -12 -13 -13 -13 -13 -13 -12 -13 -13 -13 -13 -13 -13 -12 -12 -12 -11 -12 -12 -11 -11 -11 -11 -12 -12 -13 -13 -13 -13 -13 -13 -13 -13 -12 -13 -12
-16 -15 -15 -14 -14 -14 -13 -13 -13 -13 -13 -14 -13 -13 -13 -13 -13 -14 -13 -13 -13 -13 -12 -11 -11 -11 -11 -11 -11 -11 -12 -12 -13 -13 -13 -13 -14 -14 -14 -14 -13 -13 -13 -13
-16 -16 -15 -14 -15 -15 -14 -13 -13 -14 -14 -14 -14 -14 -14 -14 -14 -14 -14 -13 -14 -13 -13 -12 -12 -11 -11 -11 -12 -12 -12 -13 -13 -12 -13 -13 -13 -13 -13 -13 -13 -13 -13 -13
-17 -16 -16 -16 -16 -16 -16 -14 -14 -14 -14 -14 -14 -14 -14 -14 -14 -14 -14 -14 -14 -13 -13 -13 -13 -13 -13 -12 -13 -13 -13 -13 -13 -13 -13 -13 -13 -13 -13 -12 -12 -12 -12 -13
-17 -17 -17 -17 -17 -16 -14 -14 -14 -14 -14 -14 -14 -15 -14 -14 -14 -14 -13 -13 -13 -13 -13 -12 -13 -13 -14 -14 -13 -14 -13 -13 -13 -13 -13 -13 -13 -13 -13 -13 -13 -13 -13 -13
-17 -17 -17 -17 -17 -16 -15 -14 -15 -15 -15 -14 -14 -14 -14 -14 -14 -14 -14 -14 -13 -13 -13 -13 -13 -13 -14 -14 -14 -14 -14 -14 -14 -14 -13 -13 -13 -13 -13 -13 -13 -13 -14 -14
-18 -18 -18 -18 -18 -15 -15 -15 -15 -16 -14 -14 -15 -15 -15 -14 -14 -14 -14 -14 -13 -13 -14 -14 -14 -14 -14 -14 -14 -14 -14 -13 -12 -13 -13 -13 -13 -13 -13 -14 -14 -14 -15 -15
-18 -18 -18 -18 -17 -16 -16 -16 -16 -16 -14 -16 -16 -16 -15 -15 -15 -14 -14 -14 -14 -14 -14 -14 -14 -14 -14 -14 -14 -13 -13 -13 -13 -13 -13 -14 -14 -14 -14 -14 -14 -15 -15 -16
-17 -18 -18 -18 -17 -15 -16 -17 -17 -16 -15 -15 -16 -15 -15 -15 -15 -15 -15 -15 -15 -14 -14 -14 -14 -14 -14 -14 -13 -14 -14 -14 -14 -14 -14 -14 -15 -15 -15 -15 -15 -15 -16 -16
-17 -16 -17 -18 -17 -17 -17 -17 -16 -16 -16 -16 -16 -15 -15 -16 -16 -16 -15 -15 -15 -15 -15 -14 -15 -15 -15 -14 -14 -14 -15 -15 -15 -15 -15 -14 -15 -15 -15 -15 -16 -16 -16 -16
-16 -17 -17 -17 -16 -16 -17 -17 -17 -17 -16 -15 -15 -16 -15 -16 -16 -16 -16 -16 -16 -16 -16 -16 -16 -16 -15 -15 -15 -15 -15 -15 -15 -15 -15 -15 -15 -15 -15 -16 -17 -18 -18 -18
-16 -16 -16 -17 -17 -16 -16 -16 -16 -16 -16 -15 -15 -15 -15 -15 -15 -15 -16 -16 -16 -16 -16 -16 -15 -16 -15 -15 -15 -15 -15 -15 -15 -15 -15 -15 -15 -15 -16 -17 -18 -19 -20 -20
-16 -16 -16 -17 -17 -17 -17 -16 -16 -16 -16 -15 -15 -15 -15 -15 -16 -16 -16 -16 -16 -16 -16 -17 -16 -16 -16 -16 -15 -16 -15 -15 -15 -15 -15 -16 -16 -18 -19 -20 -20 -21 -22 -21
Height
5843 5847 5846 5843 5843 5843 5841 5843 5843 5840 5835 5833 5838 5837 5838 5837 5837 5836 5835 5834 5834 5832 5831 5832 5832 5833 5835 5836 5837 5835 5834 5833 5833 5832 5833 5834 5834 5834 5834 5833 5832 5831 5829 5829
5838 5842 5837 5840 5839 5840 5839 5838 5838 5838 5834 5831 5834 5835 5833 5830 5830 5830 5829 5829 5827 5826 5828 5827 5825 5826 5828 5829 5831 5830 5829 5828 5827 5828 5828 5828 5828 5828 5828 5827 5825 5823 5823 5821
5831 5837 5834 5835 5835 5835 5835 5834 5835 5835 5831 5828 5826 5830 5828 5825 5825 5825 5825 5826 5824 5820 5821 5823 5821 5820 5821 5824 5825 5823 5823 5823 5823 5823 5822 5822 5822 5822 5821 5819 5818 5817 5815 5814
5822 5829 5829 5828 5833 5829 5833 5827 5829 5828 5828 5826 5822 5822 5823 5817 5820 5820 5820 5820 5819 5818 5816 5816 5816 5815 5817 5818 5818 5818 5817 5817 5818 5818 5817 5817 5817 5815 5813 5811 5810 5809 5807 5806
5819 5819 5820 5822 5826 5822 5830 5823 5824 5822 5823 5823 5819 5818 5820 5812 5815 5815 5816 5816 5816 5815 5813 5813 5812 5811 5812 5811 5811 5812 5812 5812 5812 5811 5810 5809 5808 5807 5805 5804 5802 5800 5798 5797
5809 5809 5813 5817 5817 5818 5819 5820 5818 5817 5816 5818 5815 5814 5818 5810 5807 5810 5810 5810 5810 5810 5809 5808 5807 5805 5805 5804 5803 5803 5803 5804 5803 5802 5801 5801 5799 5798 5797 5795 5792 5791 5790 5788
5804 5803 5807 5806 5809 5811 5812 5813 5811 5811 5811 5811 5809 5809 5811 5806 5803 5802 5806 5805 5805 5805 5803 5802 5800 5799 5797 5796 5796 5796 5796 5796 5795 5794 5792 5791 5790 5789 5788 5786 5784 5782 5780 5778
5788 5795 5799 5802 5801 5807 5804 5804 5803 5805 5803 5804 5802 5803 5808 5803 5798 5798 5799 5799 5798 5798 5797 5795 5794 5793 5790 5788 5787 5786 5786 5785 5784 5784 5783 5781 5779 5778 5778 5776 5775 5774 5771 5769
5779 5782 5790 5791 5793 5794 5797 5791 5801 5795 5794 5792 5794 5798 5800 5800 5797 5794 5791 5790 5789 5789 5787 5786 5784 5782 5782 5782 5780 5778 5778 5777 5775 5773 5772 5771 5769 5768 5766 5765 5764 5762 5760 5758
5771 5772 5779 5781 5780 5783 5784 5791 5787 5785 5785 5785 5783 5787 5791 5794 5794 5791 5788 5785 5783 5781 5778 5775 5774 5773 5771 5770 5768 5767 5767 5766 5765 5764 5764 5761 5759 5757 5755 5753 5750 5750 5749 5747
5761 5762 5768 5769 5771 5775 5776 5775 5777 5779 5777 5777 5775 5773 5781 5786 5786 5784 5783 5781 5778 5774 5770 5766 5763 5762 5761 5760 5760 5759 5757 5756 5753 5751 5751 5751 5749 5747 5745 5742 5739 5740 5740 5737
5751 5751 5753 5759 5761 5763 5763 5765 5769 5768 5771 5770 5766 5764 5765 5774 5774 5775 5774 5772 5769 5764 5759 5756 5752 5749 5748 5749 5749 5748 5747 5747 5746 5743 5742 5741 5740 5737 5734 5731 5729 5730 5726 5723
5736 5737 5741 5747 5748 5748 5752 5759 5760 5760 5760 5758 5759 5758 5760 5761 5762 5764 5763 5762 5756 5753 5752 5751 5748 5745 5740 5737 5734 5732 5735 5735 5735 5734 5733 5731 5729 5727 5722 5719 5718 5716 5713 5710
5719 5724 5727 5732 5741 5744 5744 5750 5751 5749 5745 5746 5746 5750 5753 5749 5749 5751 5748 5744 5744 5745 5743 5739 5737 5734 5731 5728 5725 5722 5719 5721 5725 5724 5721 5720 5718 5715 5711 5709 5707 5704 5701 5697
5704 5712 5718 5723 5727 5733 5734 5738 5739 5737 5737 5735 5739 5739 5742 5742 5739 5737 5734 5731 5731 5732 5730 5727 5722 5722 5720 5718 5715 5712 5710 5710 5710 5710 5709 5708 5704 5701 5699 5697 5696 5694 5689 5685
5692 5698 5706 5709 5715 5718 5721 5728 5727 5722 5723 5726 5728 5725 5733 5730 5727 5726 5720 5719 5717 5715 5714 5714 5710 5707 5707 5705 5703 5698 5697 5698 5696 5695 5694 5693 5691 5688 5686 5685 5683 5680 5677 5673
5685 5687 5694 5696 5701 5702 5704 5712 5714 5716 5714 5715 5715 5722 5719 5718 5717 5712 5709 5706 5704 5703 5701 5700 5697 5694 5693 5692 5690 5689 5687 5685 5684 5683 5681 5678 5676 5674 5672 5669 5666 5663 5660 5657
5671 5677 5680 5684 5686 5684 5692 5699 5703 5703 5703 5706 5707 5708 5709 5708 5704 5698 5694 5692 5691 5689 5688 5686 5684 5682 5680 5679 5678 5677 5678 5677 5675 5673 5669 5667 5665 5662 5658 5654 5651 5647 5642 5637
5659 5664 5668 5669 5671 5676 5679 5681 5688 5688 5688 5691 5692 5696 5696 5692 5687 5684 5681 5678 5679 5677 5675 5673 5672 5670 5669 5668 5669 5668 5667 5665 5662 5660 5658 5655 5652 5647 5643 5641 5636 5631 5626 5620
5647 5651 5655 5657 5658 5656 5664 5672 5673 5670 5668 5681 5680 5678 5675 5672 5671 5670 5666 5665 5663 5663 5662 5661 5661 5661 5660 5659 5657 5656 5656 5654 5651 5649 5646 5642 5637 5632 5627 5623 5618 5613 5608 5604
5634 5636 5639 5645 5644 5643 5648 5654 5658 5659 5663 5664 5660 5658 5658 5657 5657 5653 5651 5650 5650 5649 5648 5648 5649 5648 5647 5646 5645 5643 5641 5637 5634 5631 5628 5624 5620 5615 5610 5605 5600 5594 5588 5582
5622 5626 5628 5633 5635 5628 5638 5644 5645 5647 5643 5644 5644 5643 5642 5642 5641 5638 5636 5635 5636 5636 5636 5635 5634 5634 5633 5631 5630 5628 5625 5622 5618 5613 5608 5604 5600 5595 5589 5583 5578 5573 5568 5565
5608 5613 5618 5622 5625 5626 5624 5626 5627 5628 5627 5626 5628 5629 5628 5629 5627 5625 5624 5622 5622 5621 5621 5620 5620 5619 5617 5615 5613 5611 5607 5603 5599 5594 5590 5584 5577 5571 5565 5559 5553 5548 5545 5541
5595 5601 5604 5608 5612 5613 5615 5615 5614 5613 5614 5613 5612 5611 5611 5612 5612 5613 5610 5608 5609 5608 5608 5607 5603 5600 5598 5594 5592 5588 5584 5580 5575 5569 5564 5558 5552 5545 5539 5533 5528 5523 5520 5515
5583 5588 5592 5594 5598 5601 5604 5603 5602 5600 5601 5601 5601 5601 5599 5598 5597 5597 5596 5596 5595 5594 5592 5589 5586 5582 5579 5576 5571 5566 5561 5553 5547 5542 5537 5531 5524 5518 5510 5503 5497 5493 5489 5487
5572 5577 5579 5581 5585 5587 5589 5590 5592 5591 5591 5591 5590 5589 5588 5587 5587 5586 5584 5584 5582 5579 5575 5572 5569 5565 5561 5555 5549 5542 5535 5527 5519 5511 5503 5496 5490 5483 5479 5475 5472 5469 5467 5464
Wind_Speed
29 22 19 19 14 14 14 16 15 19 22 23 18 17 13 17 15 13 25 31 30 30 28 25 26 28 26 20 19 19 19 21 22 23 20 20 19 19 21 22 24 27 30 31
31 22 28 22 18 16 16 16 19 16 22 26 20 17 16 18 19 20 24 26 26 26 22 23 25 26 27 22 21 19 20 21 22 23 22 19 20 22 24 26 29 31 31 31
35 26 31 27 24 20 17 18 17 17 18 23 24 17 17 20 22 26 24 21 21 22 17 18 23 21 23 22 19 17 20 21 21 24 24 22 24 26 28 30 31 32 32 33
38 30 31 31 25 27 15 24 20 21 20 20 23 23 17 21 20 20 21 20 21 22 20 20 19 17 19 17 20 21 25 26 27 27 27 26 26 24 27 30 32 33 34 36
37 35 34 32 26 30 19 28 25 24 25 20 24 26 16 30 22 20 21 20 21 20 23 19 20 15 15 16 15 20 22 25 27 28 27 27 26 27 31 33 35 36 37 37
40 40 36 32 31 30 28 29 30 28 26 25 24 27 17 27 27 21 17 17 21 24 24 19 20 16 15 15 18 18 20 24 26 27 27 27 28 32 34 35 38 38 38 36
39 41 36 37 35 32 32 33 32 32 31 27 28 27 20 23 27 25 16 13 15 21 24 26 26 24 22 25 26 28 31 32 32 31 33 35 34 35 37 38 38 39 39 39
45 43 39 37 39 31 34 34 35 34 35 30 31 30 22 22 24 24 24 22 22 27 28 30 32 31 30 30 32 34 36 38 38 41 41 41 40 40 40 41 43 43 43 42
48 46 41 40 38 38 37 43 33 37 40 41 36 32 27 24 23 24 25 24 23 24 29 32 36 36 38 37 38 42 43 43 44 46 46 46 47 46 45 45 45 44 43 44
46 46 42 43 44 44 43 38 39 41 45 44 46 40 31 25 19 20 20 20 22 28 31 32 31 33 31 33 36 37 37 41 49 52 50 48 46 46 48 46 46 44 45 47
49 46 44 42 43 42 43 45 45 43 45 45 49 50 39 29 23 21 22 24 28 30 34 36 36 39 41 40 41 45 48 50 47 49 47 46 45 48 50 49 50 47 47 48
52 51 51 47 44 43 45 41 38 41 45 47 50 53 48 34 34 29 26 29 32 34 37 41 44 45 46 46 46 48 47 46 46 48 47 46 50 53 48 48 50 46 41 43
59 55 53 48 49 53 49 44 44 45 45 49 51 54 50 44 43 35 33 34 38 39 40 42 44 48 49 50 53 55 51 49 46 40 39 40 42 42 45 44 44 42 42 44
56 52 55 54 46 42 45 46 45 44 50 50 53 51 49 51 49 44 46 48 47 43 43 45 47 46 52 51 55 57 59 54 47 41 41 41 41 43 44 45 45 46 49 50
53 55 55 56 50 43 48 44 49 53 53 53 51 52 50 49 49 49 52 54 54 51 50 48 48 47 47 49 50 54 54 53 47 43 43 43 42 45 45 46 49 49 51 55
58 59 57 58 51 54 50 49 52 55 50 51 52 59 50 50 52 53 58 62 59 58 57 52 48 48 49 48 47 49 46 45 47 45 42 43 46 48 51 51 50 52 55 57
52 55 56 56 54 53 54 55 57 55 57 55 57 56 57 59 59 63 64 62 61 58 52 49 42 40 43 47 45 45 47 47 47 46 47 51 52 53 54 56 59 61 60 59
51 51 48 52 55 57 61 60 61 62 63 62 63 62 60 58 57 61 63 63 58 56 53 49 42 41 42 43 43 44 45 48 50 51 51 51 54 58 61 62 63 63 64 67
44 51 55 55 56 60 62 63 60 61 63 61 59 56 54 57 57 58 59 59 57 55 50 45 45 45 44 43 41 43 44 44 47 51 56 60 62 61 63 65 65 66 70 71
60 60 57 59 60 67 62 59 61 63 55 49 50 53 56 58 58 59 59 57 56 50 42 43 45 45 47 47 49 50 52 51 51 53 55 60 64 68 67 69 73 75 76 76
67 70 66 62 64 69 66 63 58 59 50 50 56 56 54 52 52 54 53 47 43 44 44 43 43 45 42 44 48 48 51 56 58 61 65 66 69 71 75 77 80 79 71 70
60 60 62 64 67 63 61 58 60 56 53 52 53 51 48 47 50 53 49 46 44 43 41 41 44 44 47 49 52 56 58 61 65 69 71 72 75 78 81 80 78 79 75 76
61 61 60 65 58 56 61 59 56 54 53 53 50 48 48 46 44 42 41 38 38 41 44 48 51 52 54 57 59 61 65 68 71 73 78 84 82 81 83 83 79 80 84 90
53 56 61 60 57 55 50 49 51 50 48 49 49 49 48 43 46 46 40 39 44 48 52 55 57 59 66 68 74 75 78 81 84 83 84 87 89 90 90 92 91 88 88 89
51 53 46 48 47 48 46 46 48 50 48 49 51 46 47 53 50 47 43 49 51 54 59 63 66 68 71 77 79 84 89 91 92 95 96 97 98 96 94 90 85 82 78 72
41 47 48 45 38 41 50 49 46 50 48 46 45 47 46 43 44 47 51 61 63 65 68 69 75 76 82 85 89 91 94 96 99 103 103 104 102 95 86 76 74 73 73 68
Wind_Direction
246 247 262 258 272 288 300 306 303 291 279 280 294 299 282 270 268 263 264 269 262 264 268 260 255 261 262 264 274 274 275 262 263 263 259 255 256 260 269 273 272 271 273 276
249 247 255 259 266 273 288 302 303 292 275 282 285 288 271 263 247 244 253 266 276 281 280 276 260 252 260 266 269 265 262 258 254 263 263 259 258 262 266 274 275 274 279 284
246 245 248 251 255 265 276 288 297 293 283 292 295 284 279 267 255 258 265 268 274 281 286 283 268 259 260 263 262 254 246 247 248 250 254 259 266 272 278 280 275 278 283 284
243 241 247 251 249 260 262 276 284 290 293 291 294 294 301 279 276 266 270 270 275 282 283 293 280 263 265 252 244 237 239 242 246 245 247 255 261 266 277 281 282 283 284 287
244 244 244 250 251 251 255 267 275 282 289 297 289 295 295 283 279 275 283 284 282 283 279 282 272 254 259 268 263 252 245 247 253 254 258 263 267 273 278 283 283 284 284 286
239 244 246 248 251 254 253 257 269 274 283 287 286 295 297 288 290 285 273 277 275 273 262 265 255 261 261 269 281 279 274 270 266 265 258 263 274 278 280 283 285 284 284 282
246 243 247 249 248 251 256 260 262 267 274 286 286 289 307 294 292 294 274 255 267 273 266 261 255 260 277 290 288 285 284 282 274 273 277 279 279 279 282 280 278 278 279 283
244 242 245 250 253 254 256 258 257 266 271 271 277 285 290 294 300 299 293 280 263 256 261 267 270 269 269 272 275 277 280 282 284 285 280 278 278 279 278 276 276 280 281 280
249 248 247 248 249 249 251 254 261 259 262 269 275 283 286 284 297 294 294 291 288 276 270 276 272 276 280 276 276 278 280 281 282 283 281 280 281 281 279 279 281 282 282 283
247 250 248 249 251 250 252 253 244 248 260 269 279 279 282 282 288 288 305 293 282 282 285 285 273 265 262 263 267 269 268 272 279 279 279 280 278 280 284 285 282 283 284 285
246 247 246 248 249 251 251 253 251 252 257 269 276 282 284 281 283 286 295 294 290 277 275 276 273 266 256 253 258 260 262 270 275 275 275 274 274 279 284 282 281 279 281 284
246 248 244 246 248 247 247 244 246 250 256 264 272 275 282 288 290 292 295 288 284 281 270 268 270 272 273 270 266 263 262 269 275 273 272 275 276 280 279 275 278 286 286 285
244 244 243 240 244 245 244 250 260 261 260 260 266 271 282 285 287 292 292 287 284 284 280 276 274 273 274 275 278 280 271 265 268 268 274 274 273 273 276 279 285 287 285 289
244 241 245 241 245 256 258 259 260 258 261 267 267 272 277 285 291 294 294 294 292 293 292 292 282 274 269 272 275 278 277 274 270 276 275 276 274 275 275 278 280 280 284 284
235 245 248 247 244 250 249 247 250 256 262 264 271 273 276 283 287 288 292 291 293 294 295 292 289 279 275 272 279 278 278 279 281 278 274 275 271 270 270 273 275 276 278 288
246 249 249 249 251 248 252 245 247 252 258 266 268 271 279 282 282 286 287 290 290 293 296 294 291 286 278 276 278 278 276 276 276 279 276 275 275 276 278 281 280 281 284 285
249 251 252 252 253 252 250 241 247 252 256 260 262 269 272 277 281 281 281 282 285 289 288 289 289 287 281 277 276 276 271 271 271 272 274 276 280 283 283 285 287 287 287 286
236 242 245 249 248 249 251 250 252 253 258 265 266 266 271 276 277 277 279 281 283 287 287 283 276 278 273 270 270 272 275 275 276 277 279 280 283 287 289 289 289 288 289 289
230 238 246 249 255 258 256 257 260 260 261 264 268 272 274 274 274 275 278 280 281 285 283 273 271 274 276 275 275 276 275 274 275 279 282 284 286 286 286 286 285 285 285 287
245 249 248 251 253 258 263 259 264 267 268 271 277 279 276 272 273 277 279 280 277 279 275 267 271 273 274 274 276 279 280 283 290 288 284 282 282 283 285 286 284 285 287 291
240 245 245 248 253 263 265 268 265 268 279 278 274 273 275 276 277 278 279 279 271 274 276 266 270 272 275 278 284 284 282 280 283 284 285 287 286 286 287 288 288 286 286 292
245 244 246 247 253 264 265 270 274 275 270 274 277 274 277 279 280 283 281 277 275 273 272 273 275 278 279 281 283 280 281 283 286 288 288 288 289 289 289 290 291 286 282 285
250 251 251 250 259 268 269 271 275 276 276 275 273 272 276 279 277 279 274 276 278 277 278 284 280 277 281 280 281 282 283 284 285 286 288 291 293 291 290 290 290 288 283 285
258 256 256 259 264 261 262 267 271 273 277 276 278 280 281 279 277 277 280 280 272 275 283 281 274 277 284 287 290 290 290 291 292 293 293 294 295 294 293 291 290 286 283 285
262 253 256 257 260 258 261 271 268 272 272 277 278 273 276 279 276 278 284 273 280 278 277 279 281 279 283 289 290 292 295 298 298 296 295 294 293 291 288 287 286 284 283 283
263 262 263 268 263 265 265 262 264 270 268 273 270 271 271 274 278 276 266 270 268 270 280 283 283 284 288 293 296 296 297 296 296 296 296 295 295 294 292 288 282 277 271 273